Location: Llanfihangel-Ystrad
(52.1833°N, 4.1667°W)
Time: 03:44:17
(UTC+00:00)

Daily predictions for brighter satellites

Satellite Brightness Start Highest point End
(mag) Time Altitude Azimuth Time Altitude Azimuth Time Altitude Azimuth
ATLAS 2AS CENTAUR R/B 4.2 02:23:04 36° NNE 02:23:04 36° NNE 02:27:57 10° NE
Cosmos 1943 Rocket 4.5 02:49:41 19° NNE 02:49:41 19° NNE 02:53:21 10° ENE
SL-16 R/B 4.4 03:11:43 18° N 03:11:43 18° N 03:13:30 10° NNE
Cosmos 2344 4.4 03:09:45 45° NNW 03:09:45 45° NNW 03:18:43 10° ENE
Cosmos 2369 Rocket 4.4 03:08:02 18° N 03:09:52 21° NNE 03:14:08 10° E
USA 215 3.9 03:15:13 10° ENE 03:20:00 52° ENE 03:20:00 52° ENE
CZ-4C R/B 3.6 03:29:40 35° ENE 03:29:40 35° ENE 03:33:39 10° NE
Cosmos 2333 Rocket 3.6 03:31:49 33° NNE 03:31:49 33° NNE 03:34:52 10° NNE
NOSS 3-1 (A) 4.0 03:39:16 78° NE 03:39:16 78° NE 03:47:33 10° SE
ATLAS CENTAUR R/B 4.1 03:43:09 18° E 03:43:09 18° E 03:45:24 10° ENE
ADEOS II 4.2 03:39:33 10° N 03:41:04 19° N 03:41:04 19° N
IDEFIX/ARIANE 42P 3.7 03:47:03 10° NNE 03:50:26 39° NE 03:50:26 39° NE
Cosmos 2322 Rocket 4.2 03:56:25 19° N 03:56:25 19° N 03:59:06 10° NNE
Cosmos 2237 Rocket 2.6 04:03:02 58° NE 04:03:02 58° NE 04:07:36 10° NNE
Cosmos 2219 Rocket 3.2 04:14:45 37° N 04:14:45 37° N 04:18:36 10° NNE
ATLAS 2AS CENTAUR R/B 4.1 04:10:28 28° NW 04:13:14 36° N 04:20:08 10° ENE
ADEOS 3.7 04:19:23 10° NNE 04:24:38 68° ESE 04:25:00 65° SE
Cosmos 2360 Rocket 3.9 04:26:01 21° NNW 04:26:01 21° NNW 04:29:20 10° NNE
Nadezhda 3 Rocket 3.8 04:25:58 78° WNW 04:25:58 78° WNW 04:32:20 10° N
Cosmos-2242 4.3 04:28:38 35° NNE 04:28:38 35° NNE 04:31:14 10° NNE
COSMOS 2428 3.6 04:28:26 37° NNW 04:28:26 37° NNW 04:32:44 10° NNE
Meteor 2-10 Rocket 4.1 04:27:19 34° SSE 04:29:26 55° E 04:34:30 10° NNE
Cosmos 1943 Rocket 2.6 04:31:14 25° NNW 04:34:28 60° NE 04:39:54 10° SE
NOSS 3-1 (C) 4.2 04:36:43 49° SW 04:36:43 49° SW 04:44:11 10° SSE
Lacrosse 5 1.8 04:38:34 80° ESE 04:38:34 80° ESE 04:43:21 10° ESE
Cosmos 1241 Rocket 4.3 04:37:37 71° WSW 04:38:16 79° NW 04:44:31 10° NE
ARIANE 5 R/B 4.4 04:36:48 10° N 04:38:15 17° NNW 04:38:15 17° NNW
Cosmos 292 Rocket 4.4 04:43:28 44° SSE 04:43:28 44° SSE 04:46:42 10° SSE
SL-16 R/B 2.5 04:41:35 37° S 04:43:45 63° ESE 04:49:22 10° NE
CZ-2C R/B 2.6 04:40:40 10° NNE 04:45:54 77° ESE 04:47:46 41° S
Cosmos 1980 3.8 04:51:20 53° NW 04:51:22 53° NW 04:56:59 10° NNE
SL-16 R/B 4.3 04:53:34 13° NNW 04:54:37 13° NNW 04:57:14 10° NNE
Cosmos 2369 Rocket 2.5 04:49:50 13° NNW 04:55:01 67° NE 05:00:42 10° SE
SKYMED 2 4.3 04:51:23 10° SE 04:55:36 53° ENE 04:59:51 10° N
STARLINK-1131 4.5 04:59:19 36° E 04:59:19 36° E 05:01:19 10° ENE
Cosmos 1535 Rocket 4.5 04:52:51 10° NNW 04:58:59 57° W 05:05:00 10° S
STARLINK-1190 4.3 05:01:09 38° E 05:01:09 38° E 05:03:14 10° ENE
Cosmos 1500 Rocket 4.3 04:55:44 10° N 05:00:08 54° ENE 05:04:28 10° SSE
NOSS 2-1 (E) 3.6 05:01:57 51° SE 05:02:05 51° SE 05:05:52 10° NE
Meteor 2-3 Rocket 3.8 04:58:16 10° NNW 05:04:02 84° ENE 05:09:50 10° SSE
USA 215 3.4 04:58:18 10° ENE 05:04:45 63° N 05:07:21 37° WNW
NOSS 0 Rocket 4.3 05:08:37 40° WNW 05:09:42 43° NW 05:15:38 10° NNE
Cosmos 1743 Rocket 3.6 05:07:17 10° N 05:11:39 74° E 05:15:58 10° SSE
Cosmos 2333 Rocket 3.5 05:13:49 24° NW 05:14:15 24° NW 05:18:50 10° NNE
Cosmos 1484 Rocket 3.3 05:11:06 10° NNE 05:14:59 61° E 05:18:55 10° S
CZ-4C R/B 2.6 05:14:51 41° WNW 05:16:22 51° NNW 05:22:44 10° NE
STARLINK-1149 4.1 05:17:26 35° ENE 05:17:26 35° ENE 05:19:08 10° E
CZ-4B R/B 2.7 05:12:47 10° NNE 05:16:33 74° ESE 05:18:23 28° S
STARLINK-1129 3.2 05:17:57 67° ENE 05:17:57 67° ENE 05:20:48 10° E
ALOS 3.2 05:14:14 10° NNE 05:18:47 48° E 05:23:18 10° S
Cosmos 1459 Rocket 4.5 05:12:57 10° N 05:19:03 61° ENE 05:25:12 10° SSE
STARLINK-1134 3.1 05:19:36 70° ENE 05:19:36 70° ENE 05:22:30 10° E
STARLINK-1132 3.8 05:20:13 41° ENE 05:20:13 41° ENE 05:22:08 10° E
ATLAS CENTAUR R/B 1.5 05:19:22 47° SW 05:20:41 83° NW 05:25:06 10° NE
Cosmos 1656 Rocket 4.4 05:15:52 10° NNW 05:21:27 54° NE 05:27:01 10° SE
H-2A R/B 2.5 05:17:08 10° NNE 05:21:29 86° WNW 05:25:10 15° SSW
STARLINK-1135 3.0 05:21:47 75° NE 05:21:47 75° NE 05:24:47 10° E
STARLINK-1150 3.5 05:23:03 45° ENE 05:23:03 45° ENE 05:25:05 10° E
ADEOS II 4.2 05:21:25 10° NNW 05:22:01 11° NNW 05:22:01 11° NNW
STARLINK-1163 3.4 05:24:05 47° ENE 05:24:05 47° ENE 05:26:10 10° E
STARLINK-1141 2.9 05:23:49 78° NE 05:23:49 78° NE 05:26:54 10° E
STARLINK-1173 3.3 05:25:53 51° ENE 05:25:53 51° ENE 05:28:03 10° E
STARLINK-1140 2.8 05:25:39 80° N 05:25:39 80° N 05:28:50 10° E
STARLINK-1177 3.2 05:26:26 53° ENE 05:26:26 53° ENE 05:28:39 10° E
PSLV R/B 4.4 05:23:34 10° NNE 05:27:14 53° E 05:30:55 10° S
STARLINK-1167 3.1 05:27:50 56° ENE 05:27:50 56° ENE 05:30:06 10° E
STARLINK-1156 2.8 05:27:35 80° NNW 05:27:37 80° N 05:30:50 10° E
Cosmos 1842 Rocket 3.6 05:23:24 10° S 05:27:53 86° E 05:32:24 10° NNE
STARLINK-1148 2.8 05:29:31 77° NW 05:29:38 79° N 05:32:50 10° E
IDEFIX/ARIANE 42P 3.7 05:27:18 10° N 05:31:15 25° NW 05:31:15 25° NW
STARLINK-1158 2.8 05:31:27 73° NW 05:31:39 79° N 05:34:51 10° E
STARLINK-1136 2.8 05:32:38 64° NE 05:32:38 64° NE 05:35:04 10° E
Cosmos 1633 3.3 05:29:17 10° N 05:32:52 53° ENE 05:36:27 10° SSE
MSX 4.4 05:27:51 10° N 05:33:01 36° WNW 05:34:36 31° W
Cosmos 1356 Rocket 3.4 05:34:33 36° SW 05:35:50 53° WNW 05:39:53 10° N
Meteor 1-27 4.2 05:30:23 10° S 05:35:56 81° E 05:41:32 10° NNE
Aureole 2 Rocket 1.9 05:37:36 42° NNW 05:38:30 87° ENE 05:41:35 10° SSE
Cosmos 1455 3.9 05:41:34 18° NNW 05:41:34 18° NNW 05:43:04 10° NNW
Cosmos 2322 Rocket 4.4 05:39:17 10° NNW 05:41:13 12° N 05:43:10 10° NNE
Meteor 1-31 Rocket 2.9 05:38:49 10° N 05:42:29 47° WNW 05:43:49 32° WSW
COSMO-SKYMED 1 2.6 05:39:21 10° S 05:43:37 57° W 05:47:56 10° NNW
Cosmos 2251 Rocket 3.7 05:41:43 23° SW 05:44:52 53° WNW 05:50:06 10° NNE
Cosmos 2237 Rocket 3.2 05:44:52 25° WNW 05:46:36 29° NW 05:51:28 10° NNE
Cosmos 921 Rocket 3.0 05:42:14 10° NNW 05:46:44 87° WSW 05:51:08 10° SSE
USA 116 3.0 05:46:18 10° SSE 05:49:30 81° WSW 05:52:37 10° NNW
CZ-4B R/B 4.4 05:50:12 10° N 05:54:11 41° WNW 05:57:43 13° SW
BREEZE-M DEB (TANK) 4.1 05:54:48 23° W 05:57:44 54° SSW 06:12:25 10° ESE
GEOS 3 Rocket 3.6 05:52:29 10° NE 05:57:46 73° NW 06:02:34 13° SW
SJ-12 3.8 05:53:52 10° N 05:58:01 75° WNW 06:02:08 10° SSW
STARLINK-1170 2.4 05:57:36 44° WNW 05:58:16 70° N 06:00:55 10° E
Cosmos 2219 Rocket 3.9 05:56:28 14° NW 05:58:34 17° NNW 06:02:09 10° NNE
Cosmos 2221 2.4 05:55:14 10° SSW 05:59:27 61° WNW 06:03:45 10° N
NOSS 2-1 (C) 3.4 05:59:47 27° W 06:01:25 49° NW 06:05:22 10° NE
Cosmos 1869 3.2 05:59:10 10° SSW 06:03:10 82° W 06:07:10 10° N
Cosmos 2016 Rocket 4.1 05:57:21 10° N 06:03:37 86° E 06:09:55 10° S
NOSS 2-1 (D) 3.5 06:03:45 25° W 06:05:30 46° NW 06:09:26 10° NE
ATLAS 2AS CENTAUR R/B 3.6 05:58:19 10° NW 06:05:57 51° NNE 06:13:02 10° ESE
MOS 1-B 4.4 06:01:12 10° NNE 06:07:04 88° WNW 06:12:53 10° SSW
METEOR-M 4.1 06:03:12 10° NNE 06:08:34 74° WNW 06:13:53 10° SSW
Helios 1A Rocket 4.2 06:04:45 10° NNE 06:08:46 45° E 06:12:44 10° S
Cosmos 2360 Rocket 4.3 06:09:26 10° NNW 06:11:18 11° N 06:13:10 10° NNE
Meteor 2-10 Rocket 4.5 06:08:31 15° WSW 06:11:49 27° WNW 06:16:11 10° N
STARLINK-1162 2.9 06:13:05 23° W 06:14:55 74° N 06:18:03 10° E
STARLINK-1157 2.9 06:14:44 22° W 06:16:38 74° N 06:19:46 10° E
Cosmos 1238 Rocket 3.8 06:10:37 10° NNW 06:17:03 75° W 06:22:36 10° S
Cosmos 1943 Rocket 3.0 06:13:14 10° NW 06:17:53 29° WSW 06:22:31 10° SSW
STARLINK-1159 2.9 06:16:42 21° W 06:18:41 75° N 06:21:50 10° E
STARLINK-1179 2.4 06:18:16 23° WNW 06:19:40 73° N 06:22:14 10° E
STARLINK-1176 2.4 06:18:51 23° WNW 06:20:17 73° N 06:22:51 10° E
STARLINK-1171 2.9 06:18:31 20° W 06:20:35 75° N 06:23:44 10° E
Lacrosse 5 2.9 06:17:46 16° W 06:20:47 27° SW 06:25:02 10° S
Cosmos 1980 Rocket 4.4 06:17:36 10° NNW 06:20:55 16° NNE 06:24:13 10° ENE
Cosmos 2233 Rocket 4.5 06:16:05 10° N 06:22:19 66° ENE 06:28:35 10° SSE
STARLINK-1155 2.9 06:20:19 19° W 06:22:27 75° N 06:25:36 10° E
STARLINK-1153 2.7 06:21:21 19° W 06:23:18 75° N 06:26:14 10° E
STARLINK-1180 2.7 06:21:34 19° W 06:23:32 75° N 06:26:29 10° E
CZ-2C R/B 3.7 06:19:42 10° N 06:23:36 22° NW 06:27:09 11° WSW
STARLINK-1174 2.7 06:22:03 19° W 06:24:01 75° N 06:26:57 10° E
STARLINK-1139 2.7 06:22:16 19° W 06:24:14 75° N 06:27:11 10° E
STARLINK-1133 2.7 06:22:26 19° W 06:24:25 75° N 06:27:22 10° E
STARLINK-1166 2.9 06:22:22 18° W 06:24:35 76° N 06:27:44 10° E
STARLINK-1151 2.7 06:22:41 18° W 06:24:41 75° N 06:27:37 10° E
STARLINK-1160 2.7 06:23:20 18° W 06:25:21 75° N 06:28:17 10° E
STARLINK-1161 2.7 06:23:32 18° W 06:25:33 75° N 06:28:30 10° E
STARLINK-1145 2.7 06:23:46 18° W 06:25:48 75° N 06:28:44 10° E
STARLINK-1172 2.7 06:23:57 18° W 06:26:00 75° N 06:28:56 10° E
Cosmos 1727 Rocket 4.3 06:20:10 10° SW 06:26:01 42° WNW 06:31:54 10° N
STARLINK-1165 2.9 06:24:06 17° W 06:26:24 76° N 06:29:32 10° E
STARLINK-1182 2.7 06:24:25 18° W 06:26:29 75° N 06:29:25 10° E
STARLINK-1164 2.7 06:24:38 18° W 06:26:42 76° N 06:29:39 10° E
STARLINK-1168 2.7 06:24:49 17° W 06:26:54 76° N 06:29:50 10° E
STARLINK-1183 2.7 06:25:29 17° W 06:27:36 76° N 06:30:32 10° E
STARLINK-1181 2.7 06:25:41 17° W 06:27:48 76° N 06:30:44 10° E
SL-16 R/B 3.0 06:23:30 11° WSW 06:28:16 33° NW 06:33:23 10° NNE
STARLINK-1169 2.9 06:25:57 16° W 06:28:19 76° N 06:31:29 10° E
STARLINK-1196 2.7 06:26:21 17° W 06:28:30 76° N 06:31:25 10° E
STARLINK-1186 2.7 06:26:47 17° W 06:28:57 76° N 06:31:53 10° E
STARLINK-1185 2.7 06:27:00 17° W 06:29:11 76° N 06:32:07 10° E
STARLINK-1175 2.7 06:27:14 16° W 06:29:25 76° N 06:32:21 10° E
STARLINK-1147 2.7 06:27:25 16° W 06:29:36 76° N 06:32:33 10° E
STARLINK-1146 2.7 06:27:38 16° W 06:29:51 76° N 06:32:47 10° E
STARLINK-1152 2.7 06:27:51 16° W 06:30:03 76° N 06:32:59 10° E
Cosmos 1805 Rocket 3.9 06:26:00 10° NNW 06:30:07 43° W 06:34:12 10° SSW
STARLINK-1178 2.9 06:27:48 16° W 06:30:15 77° N 06:33:25 10° E
STARLINK-1195 2.7 06:28:04 16° W 06:30:18 76° N 06:33:14 10° E
STARLINK-1137 2.7 06:28:19 16° W 06:30:33 76° N 06:33:29 10° E
ADEOS Rocket 3.2 06:24:32 10° S 06:30:44 66° WSW 06:37:43 10° NNW
STARLINK-1142 2.7 06:28:32 16° W 06:30:46 77° N 06:33:42 10° E
STARLINK-1127 2.7 06:28:43 16° W 06:30:58 77° N 06:33:54 10° E
STARLINK-1184 2.7 06:28:58 16° W 06:31:13 77° N 06:34:08 10° E
STARLINK-1193 2.7 06:29:11 16° W 06:31:27 77° N 06:34:22 10° E
STARLINK-1194 2.7 06:29:22 16° W 06:31:39 77° N 06:34:35 10° E
STARLINK-1120 2.9 06:29:33 15° W 06:32:05 77° N 06:35:14 10° E
Cosmos 1862 3.3 06:28:46 10° NNW 06:32:40 57° W 06:36:33 10° S
Cosmos 2173 Rocket 4.3 06:26:43 10° NNW 06:32:41 45° W 06:38:33 10° SSW
Cosmos 1954 Rocket 4.5 06:27:36 10° SSW 06:32:52 68° ESE 06:38:11 10° NNE
STARLINK-1131 2.9 06:31:35 14° W 06:34:12 78° N 06:37:21 10° E
H-2A R/B 3.1 06:30:45 10° NNE 06:34:32 69° ESE 06:38:16 10° S
Cosmos 407 Rocket 3.5 06:29:56 10° SW 06:35:14 67° WNW 06:40:32 10° NNE
TELKOM 3 3.4 06:33:40 14° WSW 06:35:16 43° S 06:37:20 10° ESE
STARLINK-1190 2.9 06:33:22 14° W 06:36:03 78° N 06:39:12 10° E
FENGYUN 3A 3.9 06:31:16 10° N 06:36:27 46° WNW 06:41:37 10° SW
SJ-7 4.4 06:32:47 10° N 06:37:03 74° WNW 06:41:15 10° SSW
Sich 1 3.2 06:33:07 10° NNW 06:37:16 49° W 06:41:24 10° SSW
Okean O Rocket 1.5 06:33:40 10° N 06:38:03 69° WNW 06:42:23 10° SSW
Cosmos 2369 Rocket 3.2 06:33:56 10° NW 06:38:36 26° WSW 06:43:16 10° SSW
COSMOS 2455 4.0 06:35:32 10° NNW 06:41:15 41° NE 06:46:55 10° ESE
SL-16 R/B 4.4 06:39:04 10° NNW 06:41:26 12° NNE 06:43:48 10° NE
Cosmos 1140 Rocket 3.5 06:36:41 10° SSW 06:41:57 77° WNW 06:47:14 10° NNE
CZ-4B DEB 4.4 06:37:05 10° N 06:42:26 53° WNW 06:47:43 10° SW
Cosmos 1603 3.8 06:38:20 10° SW 06:44:00 62° NW 06:49:40 10° NNE
USA 215 3.6 06:40:59 10° E 06:47:26 63° N 06:53:53 10° WNW
STARLINK-1124 4.3 06:45:01 10° SW 06:47:42 35° SSE 06:50:26 10° E
STARLINK-1069 4.5 06:46:06 10° SW 06:48:44 31° SSE 06:51:23 10° E
STARLINK-1085 4.5 06:46:18 10° SW 06:48:57 31° SSE 06:51:36 10° E
Cosmos 1484 Rocket 4.3 06:46:23 10° NNW 06:49:02 18° WNW 06:51:42 10° WSW
STARLINK-1086 4.5 06:46:32 10° SW 06:49:11 31° SSE 06:51:49 10° E
STARLINK-1095 4.5 06:46:46 10° SW 06:49:25 31° SSE 06:52:04 10° E
STARLINK-1077 4.5 06:47:00 10° SW 06:49:38 31° SSE 06:52:18 10° E
STARLINK-1075 4.5 06:47:13 10° SW 06:49:52 31° SSE 06:52:32 10° E
STARLINK-1093 4.5 06:47:26 10° SW 06:50:05 31° SSE 06:52:45 10° E
STARLINK-1074 4.5 06:47:39 10° SW 06:50:18 31° SSE 06:52:58 10° E
Cosmos 192 4.4 06:45:27 10° NNW 06:50:24 87° ENE 06:55:19 10° SSE
STARLINK-1087 4.5 06:47:52 10° SW 06:50:32 32° SSE 06:53:12 10° E
STARLINK-1088 4.4 06:48:05 10° SW 06:50:45 32° SSE 06:53:24 10° E
STARLINK-1149 2.4 06:48:07 10° WNW 06:50:45 87° N 06:53:24 10° ESE
STARLINK-1115 4.4 06:48:18 10° SW 06:50:58 32° SSE 06:53:37 10° E
Cosmos 1943 3.2 06:45:28 10° SW 06:51:04 68° WNW 06:56:44 10° NNE
CZ-4B R/B 4.5 06:49:13 10° NNW 06:51:08 14° WNW 06:53:01 10° W
STARLINK-1076 4.4 06:48:32 10° SW 06:51:11 32° SSE 06:53:51 10° E
STARLINK-1092 4.4 06:48:45 10° SW 06:51:25 32° SSE 06:54:05 10° E
CZ-4 R/B 4.3 06:48:10 10° NE 06:51:28 23° E 06:54:43 10° SSE
STARLINK-1080 4.4 06:48:59 10° SW 06:51:39 32° SSE 06:54:19 10° E
STARLINK-1090 4.4 06:49:12 10° SW 06:51:52 32° SSE 06:54:32 10° E
STARLINK-1089 4.4 06:49:25 10° SW 06:52:05 32° SSE 06:54:45 10° E
STARLINK-1107 4.4 06:49:39 10° SW 06:52:18 32° SSE 06:55:00 10° E
STARLINK-1109 4.4 06:49:52 10° SW 06:52:32 32° SSE 06:55:13 10° E
STARLINK-1091 4.4 06:50:06 10° SW 06:52:46 33° SSE 06:55:28 10° E
NOSS 2-1 (E) 4.4 06:49:38 10° W 06:52:52 29° NNW 06:56:42 10° NE
STARLINK-1072 4.4 06:50:19 10° SW 06:53:00 33° SSE 06:55:41 10° E
Cosmos 2061 Rocket 4.3 06:47:09 10° NNW 06:53:05 45° W 06:58:57 10° SSW
STARLINK-1096 4.4 06:50:33 10° SW 06:53:12 33° SSE 06:55:54 10° E
STARLINK-1079 4.4 06:50:46 10° SW 06:53:26 33° SSE 06:56:08 10° E
STARLINK-1116 4.4 06:50:59 10° SW 06:53:40 33° SSE 06:56:21 10° E
STARLINK-1129 2.9 06:50:31 10° W 06:53:44 85° N 06:56:55 10° E
STARLINK-1132 2.5 06:51:11 10° WNW 06:53:53 89° NE 06:56:34 10° ESE
STARLINK-1094 4.4 06:51:25 10° SW 06:54:06 33° SSE 06:56:48 10° E
CZ-4B R/B 3.2 06:48:48 10° N 06:54:06 62° WNW 06:59:19 10° SSW
STARLINK-1117 4.4 06:51:38 10° SW 06:54:20 33° SSE 06:57:01 10° E
STARLINK-1078 4.3 06:51:52 10° SW 06:54:34 33° SSE 06:57:16 10° E
ALOS 3.2 06:52:05 10° N 06:56:00 27° WNW 06:59:54 10° WSW
Cosmos 1190 Rocket 4.2 06:52:09 10° SW 06:57:19 53° WNW 07:02:33 10° NNE
